Home   Weather   Peoria   Past weeks

Flag for USA Past Weather in Peoria, Illinois, USA — Yesterday and Last 2 Weeks

Now
50 °F

Sunny.


Feels Like: 45 °F
Forecast: 43 / 56 °F
Wind: 13 mph from South

Location: Greater Peoria Regional Airport

Current Time: Jan 21, 2017 at 9:25:09 am

Latest Report: Jan 21, 2017 at 8:54 am


Visibility: 10 mi

Pressure: 29.49 "Hg

Humidity: 86%

Dew Point: 46 °F

Location of PeoriaLocation

Past Weather in Peoria — Graph

°F

Peoria Temperature Yesterday

Maximum temperature yesterday: 51 °F (at 11:54 pm)
Minimum temperature yesterday: 38 °F (at 5:54 am)
Average temperature yesterday: 43 °F

High & Low Weather Summary for the Past Weeks

 TemperatureHumidityPressure
High53 °F (Jan 10, 11:54 am)100% (Jan 11, 12:17 pm)30.80 "Hg (Jan 11, 12:17 pm)
Low0 °F (Jan 7, 12:54 am)52% (Jan 6, 2:54 pm)29.30 "Hg (Jan 10, 12:54 pm)
Average32 °F87%30.12 "Hg
* Reported Jan 6 7:54 am — Jan 21 7:54 am, Peoria, Weather by CustomWeather, © 2017

Note: Actual official high and low records may vary slightly from our data, if they occured in-between our weather recording intervals... More about our weather records

Advertising

Peoria Weather History for the Previous 24 Hours

Scroll right to see more
 ConditionsComfort  
Time TempWeatherWind HumidityBarometerVisibility
7:54 am
Sat, Jan 21
47 °FSunny.12 mph93%29.48 "Hg10 mi
6:54 am47 °FClear.13 mph97%29.49 "Hg9 mi
5:54 am47 °FFog.10 mph97%29.49 "Hg6 mi
4:54 am47 °FFog.9 mph97%29.50 "Hg4 mi
4:43 am46 °FFog.10 mph100%29.50 "Hg3 mi
4:32 am45 °FFog.8 mph100%29.50 "Hg1 mi
4:16 am46 °FFog.7 mph100%29.50 "Hg1 mi
4:03 am46 °FFog.7 mph100%29.51 "Hg2 mi
3:54 am46 °FFog.7 mph100%29.51 "Hg3 mi
2:54 am47 °FFog.9 mph100%29.54 "Hg4 mi
1:54 am49 °FFog.12 mph97%29.54 "Hg5 mi
12:54 am50 °FFog.13 mph96%29.55 "Hg6 mi
12:35 am50 °FFog.15 mph96%29.55 "Hg6 mi
12:01 am51 °FPassing clouds.10 mph96%29.55 "Hg7 mi
11:54 pm
Fri, Jan 20
51 °FMostly cloudy.10 mph96%29.56 "Hg7 mi
11:01 pm49 °FFog.5 mph97%29.57 "Hg5 mi
9:54 pm47 °FFog.No wind97%29.59 "Hg3 mi
8:54 pm48 °FFog.5 mph100%29.61 "Hg3 mi
8:41 pm48 °FFog.5 mph100%29.60 "Hg5 mi
8:18 pm48 °FFog.7 mph100%29.59 "Hg5 mi
8:01 pm48 °FFog.6 mph100%29.60 "Hg4 mi
7:20 pm48 °FFog.7 mph100%29.61 "Hg5 mi
6:54 pm48 °FFog.6 mph100%29.62 "Hg1 mi
5:54 pm47 °FLight rain. Fog.5 mph100%29.62 "Hg1 mi
5:32 pm47 °FFog.5 mph100%29.60 "Hg1 mi
5:01 pm47 °FFog.5 mph100%29.59 "Hg1 mi
4:38 pm47 °FFog.7 mph100%29.59 "Hg0 mi
4:19 pm47 °FFog.5 mph100%29.60 "Hg1 mi
3:54 pm47 °FFog.3 mph97%29.62 "Hg6 mi
2:54 pm47 °FLow clouds.8 mph97%29.62 "Hg10 mi
1:54 pm47 °FLow clouds.8 mph93%29.60 "Hg10 mi
12:54 pm46 °FFog.3 mph96%29.60 "Hg6 mi
11:54 am45 °FFog.No wind97%29.62 "Hg3 mi
10:54 am43 °FFog.3 mph100%29.67 "Hg3 mi
10:24 am43 °FFog.5 mph100%29.66 "Hg1 mi
10:19 am42 °FFog.7 mph100%29.66 "Hg3 mi
9:54 am41 °FFog.3 mph100%29.66 "Hg0 mi
Weather by CustomWeather, © 2017

See weather overviewHow to use our weather pages